CAPE
657 532 415 304 150 62 15 1 0 0 0 0 0 0 0 0 0 0 0 0 0 0
251 213 95 11 0 0 0 0 0 0 0 0 0 0 0 0 0 0 0 0 0 0
43 7 0 0 0 0 0 0 0 0 0 0 0 0 0 0 0 0 0 0 0 0
0 0 0 0 0 0 0 0 0 0 0 0 0 0 0 0 0 0 0 0 0 0
0 0 0 0 0 0 0 0 0 0 0 0 0 0 0 0 0 0 0 0 0 0
0 0 0 0 0 0 0 0 0 0 0 0 0 0 0 0 0 0 0 0 0 0
0 0 0 0 0 0 0 0 0 0 0 0 0 0 0 0 0 0 0 0 0 0
0 0 0 0 0 0 0 0 0 0 0 0 0 0 0 0 0 0 0 0 0 0
0 0 0 0 0 0 0 0 0 0 0 0 0 0 0 0 0 0 0 0 0 0
0 0 0 0 0 0 0 0 0 0 0 0 0 0 0 0 0 0 0 0 0 0
0 0 0 0 0 0 0 0 0 0 0 0 0 0 0 0 0 0 0 0 0 0
0 0 0 0 0 0 0 0 0 0 0 0 0 0 0 0 0 0 0 0 0 0
0 3 8 1 0 0 0 0 0 0 0 0 0 0 0 0 0 0 0 0 0 0
14 13 0 0 0 0 0 0 0 0 0 0 0 0 0 0 0 0 0 0 0 0
CIN
-230 -245 -246 -260 -329 -367 -442 -60 -0 -0 -0 -0 -0 -0 -0 -0 -0 -0 -0 -0 -0 -0
-311 -306 -355 -416 -0 -0 -0 -0 -0 -0 -0 -0 -0 -0 -0 -0 -0 -0 -0 -0 -0 -0
-439 -273 -0 -0 -0 -0 -0 -0 -0 -0 -0 -0 -0 -0 -0 -0 -0 -0 -0 -0 -0 -0
-0 -0 -0 -0 -0 -0 -0 -0 -0 -0 -0 -0 -0 -0 -0 -0 -0 -0 -0 -0 -0 -0
-0 -0 -0 -0 -0 -0 -0 -0 -0 -6 -69 -123 -0 -0 -0 -0 -0 -0 -0 -0 -0 -0
-0 -0 -0 -0 -0 -0 -0 -0 -0 -0 -0 -0 -0 -0 -0 -0 -0 -0 -0 -0 -0 -0
-0 -0 -0 -0 -0 -0 -0 -0 -0 -0 -0 -0 -0 -0 -0 -0 -0 -0 -0 -0 -0 -0
-0 -0 -0 -0 -0 -0 -0 -0 -0 -0 -0 -0 -0 -0 -0 -0 -0 -0 -0 -0 -0 -0
-0 -0 -0 -0 -0 -0 -0 -0 -0 -0 -0 -0 -0 -0 -0 -0 -0 -0 -0 -0 -0 -0
-0 -0 -0 -0 -0 -0 -0 -0 -0 -0 -0 -0 -0 -0 -0 -0 -0 -0 -0 -0 -0 -0
-0 -0 -0 -0 -0 -0 -0 -0 -0 -0 -0 -0 -0 -0 -0 -0 -0 -0 -0 -0 -0 -0
-0 -0 -81 -0 -0 -0 -0 -0 -0 -0 -0 -0 -0 -0 -0 -0 -0 -0 -0 -0 -0 -0
-0 -58 -44 -52 -0 -0 -0 -0 -0 -0 -0 -0 -0 -0 -0 -0 -0 -0 -0 -0 -0 -0
-23 -27 -0 -0 -0 -0 -0 -0 -0 -0 -0 -0 -0 -0 -0 -0 -0 -0 -0 -0 -0 -0
Wind_Speed
17 18 18 20 21 21 22 23 22 21 21 20 20 21 21 20 21 21 22 22 23 23
19 19 20 21 21 21 21 21 20 20 20 21 21 21 21 21 21 22 22 22 23 23
19 19 19 20 20 20 20 20 21 21 21 21 21 21 21 22 22 23 23 23 24 24
20 20 20 20 20 20 20 20 20 21 21 21 21 21 21 22 22 23 24 24 23 23
19 20 20 20 20 20 20 20 21 21 21 22 21 20 22 22 23 24 24 24 24 23
19 19 20 20 20 20 21 21 21 21 22 22 20 20 21 22 22 24 24 24 24 23
19 19 19 20 20 20 21 21 21 22 22 22 21 21 20 20 21 23 24 24 23 23
18 18 19 20 20 20 21 21 21 22 22 23 23 22 20 20 21 22 23 23 23 23
18 18 19 18 19 20 21 21 21 22 23 23 23 24 22 22 22 23 24 24 23 23
16 17 18 18 19 20 20 21 22 22 22 24 23 22 22 22 22 23 24 24 24 23
15 16 17 17 18 19 18 18 19 21 21 22 22 20 19 20 20 22 23 23 24 25
15 16 16 16 16 17 17 17 18 18 19 20 20 22 17 17 18 19 22 22 23 24
15 16 16 15 15 16 16 17 17 19 19 20 20 21 22 17 15 15 17 19 19 17
15 16 16 16 16 17 18 17 17 17 17 18 19 20 22 21 20 14 11 9 8 8
Wind_Direction
357 358 359 359 358 356 354 353 356 358 2 3 4 4 8 10 11 9 6 4 2 360
5 3 2 360 359 357 1 4 8 12 12 11 14 15 13 11 10 7 4 2 358 355
5 7 8 10 11 12 15 17 16 16 18 18 18 18 15 11 9 6 2 2 1 359
11 13 17 16 17 19 22 23 24 23 20 20 17 14 15 13 9 5 2 1 1 1
20 22 22 23 25 22 19 20 18 17 18 16 18 20 14 9 9 7 4 3 1 359
22 24 25 25 24 24 25 22 19 19 15 14 15 15 15 15 14 13 12 9 12 10
26 28 29 28 26 25 23 21 18 16 15 14 13 9 14 18 16 16 15 15 19 19
35 36 33 30 29 27 24 22 20 19 18 17 16 16 19 20 20 20 19 22 22 17
36 37 36 36 32 28 26 27 27 25 26 25 26 34 29 33 34 33 30 29 21 18
39 40 39 37 33 31 32 37 36 33 30 33 37 32 35 37 36 31 25 22 24 22
46 42 39 39 39 38 44 45 38 31 31 28 21 29 44 42 37 32 31 29 28 26
50 48 47 47 48 45 45 45 45 37 33 28 22 15 57 48 50 45 38 35 22 21
55 51 48 47 42 43 49 44 41 45 42 34 29 20 33 69 60 56 56 54 52 60
57 55 48 49 49 51 51 46 42 45 45 46 27 12 27 41 43 68 114 142 183 142